ON7HN-2 Weather Reports


time (UTC)temp
C
wind
direction
speed
KPH
gust
KPH
rain 1hr
cm
rain 24hr
cm
rain mn
cm
humidity
%
barometer
mb
20260506195506 10 327 8.0 9.7 0.00 0.00 0.00 86 1010.9
20260506195005 10 333 6.4 8.0 0.00 0.00 0.00 85 1010.9
20260506194505 10 337 8.0 8.0 0.00 0.00 0.00 84 1010.8
20260506194005 11 340 8.0 8.0 0.00 0.00 0.00 84 1011.1
20260506193505 11 329 6.4 6.4 0.00 0.00 0.00 84 1010.9
20260506193005 11 333 6.4 8.0 0.00 0.00 0.00 84 1010.8
20260506192505 11 342 6.4 6.4 0.00 0.00 0.00 83 1010.6
20260506192006 11 317 9.7 12.9 0.00 0.00 0.00 83 1010.7
20260506191506 11 326 6.4 8.0 0.00 0.00 0.00 82 1010.6
20260506191011 11 338 8.0 9.7 0.00 0.00 0.00 82 1010.5
20260506190506 11 305 8.0 14.5 0.00 0.00 0.00 82 1010.4
20260506190006 11 343 4.8 6.4 0.00 0.00 0.00 82 1010.6
20260506185505 11 328 8.0 8.0 0.00 0.00 0.00 81 1010.6
20260506185005 11 339 9.7 12.9 0.00 0.00 0.00 80 1010.4
20260506184506 11 308 11.3 12.9 0.00 0.00 0.00 79 1010.4
20260506184011 11 335 11.3 16.1 0.00 0.00 0.00 79 1010.3
20260506183505 11 334 12.9 16.1 0.00 0.00 0.00 79 1010.1
20260506183006 11 340 11.3 12.9 0.00 0.00 0.00 77 1010.1
20260506182506 11 4 16.1 19.3 0.00 0.00 0.00 77 1010.3
20260506182011 12 327 12.9 16.1 0.00 0.00 0.00 77 1010.2
20260506181511 12 351 14.5 17.7 0.00 0.00 0.00 76 1010.0
20260506181005 12 339 12.9 16.1 0.00 0.00 0.00 76 1009.9
20260506180505 12 346 8.0 9.7 0.00 0.00 0.00 77 1009.7
20260506180006 12 308 8.0 8.0 0.00 0.00 0.00 75 1009.8
20260506175511 12 338 17.7 20.9 0.00 0.00 0.00 73 1009.7
20260506175006 12 302 6.4 8.0 0.00 0.00 0.00 78 1009.7
20260506174505 12 345 16.1 19.3 0.00 0.00 0.00 76 1009.7
20260506174005 12 329 11.3 14.5 0.00 0.00 0.00 78 1009.5
20260506173505 12 326 16.1 19.3 0.00 0.00 0.00 77 1009.6
20260506173006 12 332 17.7 22.5 0.00 0.00 0.00 77 1009.7
20260506172506 12 347 14.5 17.7 0.00 0.00 0.00 75 1009.5
20260506172005 12 14 9.7 14.5 0.00 0.00 0.00 75 1009.4
20260506171505 12 343 12.9 16.1 0.00 0.00 0.00 75 1009.2
20260506171006 12 42 14.5 16.1 0.00 0.00 0.00 73 1009.2
20260506170506 12 330 16.1 22.5 0.00 0.00 0.00 73 1009.2
20260506170006 13 327 9.7 12.9 0.00 0.00 0.00 72 1009.1
20260506165505 13 334 11.3 16.1 0.00 0.00 0.00 73 1009.2
20260506165005 13 335 14.5 16.1 0.00 0.00 0.00 70 1009.1
20260506164505 13 344 11.3 12.9 0.00 0.00 0.00 71 1009.1
20260506164005 13 23 11.3 16.1 0.00 0.00 0.00 69 1009.0
20260506163505 13 359 14.5 17.7 0.00 0.00 0.00 71 1009.1
20260506163005 13 329 11.3 14.5 0.00 0.00 0.00 71 1008.9
20260506162506 12 341 16.1 19.3 0.00 0.00 0.00 72 1009.0
20260506162005 13 337 16.1 20.9 0.00 0.00 0.00 72 1008.9
20260506161506 13 333 17.7 19.3 0.00 0.00 0.00 71 1008.9
20260506161010 13 343 16.1 17.7 0.00 0.00 0.00 73 1008.9
20260506160510 13 332 9.7 12.9 0.00 0.00 0.00 74 1008.9
20260506160005 13 332 12.9 16.1 0.00 0.00 0.00 73 1008.9
20260506155505 13 325 14.5 17.7 0.00 0.00 0.00 74 1008.8
20260506155005 13 11 11.3 17.7 0.00 0.00 0.00 73 1008.9
20260506154505 13 330 19.3 20.9 0.00 0.00 0.00 73 1008.8
20260506154006 13 345 11.3 16.1 0.00 0.00 0.00 73 1009.0
20260506153506 13 9 11.3 16.1 0.00 0.00 0.00 72 1008.9
20260506153006 14 332 8.0 9.7 0.00 0.00 0.00 72 1008.9
20260506152506 13 333 14.5 16.1 0.00 0.00 0.00 74 1008.9
20260506152011 13 330 12.9 16.1 0.00 0.00 0.00 73 1008.9
20260506151511 13 0 12.9 14.5 0.00 0.00 0.00 73 1008.8
20260506151011 13 332 16.1 17.7 0.00 0.00 0.00 73 1008.9
20260506150506 13 4 16.1 20.9 0.00 0.00 0.00 72 1008.8
20260506150006 13 329 14.5 16.1 0.00 0.00 0.00 71 1008.7
20260506145506 13 324 19.3 19.3 0.00 0.00 0.00 71 1008.9
20260506145005 14 327 12.9 14.5 0.00 0.00 0.00 72 1008.9
20260506144505 14 311 14.5 17.7 0.00 0.00 0.00 72 1008.8
20260506144006 14 351 14.5 17.7 0.00 0.00 0.00 71 1008.9
20260506143505 13 6 12.9 16.1 0.00 0.00 0.00 74 1008.6
20260506143005 13 305 14.5 16.1 0.00 0.00 0.00 73 1008.9
20260506142505 13 353 8.0 9.7 0.00 0.00 0.00 73 1008.9
20260506142005 13 332 11.3 14.5 0.00 0.00 0.00 72 1008.7
20260506141505 13 357 12.9 17.7 0.00 0.00 0.00 72 1008.9
20260506141010 13 329 16.1 19.3 0.00 0.00 0.00 73 1008.7
20260506140510 13 334 14.5 16.1 0.00 0.00 0.00 73 1008.8
20260506140005 13 323 12.9 17.7 0.00 0.00 0.00 73 1008.8
20260506135505 13 332 8.0 9.7 0.00 0.00 0.00 74 1008.9
20260506135005 13 358 12.9 17.7 0.00 0.00 0.00 74 1008.9
20260506134505 13 333 12.9 14.5 0.00 0.00 0.00 73 1008.9
20260506134005 13 2 9.7 12.9 0.00 0.00 0.00 74 1008.9
20260506133506 13 323 11.3 16.1 0.00 0.00 0.00 74 1008.9
20260506133005 13 354 12.9 16.1 0.00 0.00 0.00 75 1008.9
20260506132505 13 330 9.7 12.9 0.00 0.00 0.00 74 1009.0
20260506132005 13 351 9.7 12.9 0.00 0.00 0.00 76 1008.9
20260506131505 13 332 9.7 14.5 0.00 0.00 0.00 77 1008.9
20260506131005 12 343 11.3 14.5 0.00 0.00 0.00 77 1008.7
20260506130505 12 24 12.9 14.5 0.00 0.00 0.00 77 1008.9
20260506130005 12 15 8.0 9.7 0.00 0.00 0.00 78 1008.8
20260506125510 12 343 11.3 14.5 0.00 0.00 0.00 78 1008.8
20260506125011 12 286 8.0 9.7 0.00 0.00 0.00 79 1008.7
20260506124506 12 325 16.1 19.3 0.00 0.00 0.00 79 1008.7
20260506124010 12 312 11.3 12.9 0.00 0.00 0.00 78 1008.9
20260506123506 12 329 11.3 14.5 0.00 0.00 0.00 78 1008.8
20260506123005 12 323 16.1 19.3 0.00 0.00 0.00 77 1008.7
20260506122510 12 317 9.7 12.9 0.00 0.00 0.00 80 1008.9
20260506122005 12 354 9.7 12.9 0.00 0.00 0.00 79 1008.9
20260506121505 12 0 9.7 12.9 0.00 0.00 0.00 79 1008.8
20260506121005 12 11 11.3 14.5 0.00 0.00 0.00 79 1008.7
20260506120505 12 337 11.3 14.5 0.00 0.00 0.00 79 1008.8
20260506120005 12 347 11.3 12.9 0.00 0.00 0.00 81 1008.8
20260506115505 12 340 9.7 12.9 0.00 0.00 0.00 80 1008.8
20260506115005 12 20 8.0 12.9 0.00 0.00 0.00 81 1008.8
20260506114505 12 322 8.0 8.0 0.00 0.00 0.00 80 1008.9
20260506114005 12 327 11.3 12.9 0.00 0.00 0.00 79 1008.7
20260506113506 12 356 9.7 14.5 0.00 0.00 0.00 78 1008.9
20260506113006 12 335 9.7 12.9 0.00 0.00 0.00 80 1008.9
20260506112506 12 318 12.9 17.7 0.00 0.00 0.00 78 1008.8
20260506112005 12 343 9.7 12.9 0.00 0.00 0.00 79 1008.7
20260506111506 12 337 11.3 14.5 0.00 0.00 0.00 78 1008.9
20260506111006 12 33 6.4 6.4 0.00 0.00 0.00 78 1008.9
20260506110506 12 339 12.9 14.5 0.00 0.00 0.00 83 1008.7
20260506110006 12 13 8.0 9.7 0.00 0.00 0.00 84 1008.7
20260506105506 12 346 12.9 14.5 0.00 0.00 0.00 83 1008.8
20260506105006 12 328 9.7 14.5 0.00 0.00 0.00 84 1008.8
20260506104506 11 338 8.0 9.7 0.00 0.00 0.00 84 1008.8
20260506104006 11 351 4.8 6.4 0.00 0.00 0.00 86 1008.9
20260506103510 11 327 9.7 12.9 0.00 0.00 0.00 86 1008.8
20260506103005 11 23 9.7 9.7 0.00 0.00 0.00 86 1008.9
20260506102510 11 353 8.0 9.7 0.00 0.00 0.00 86 1008.9
20260506102005 11 348 9.7 14.5 0.00 0.00 0.00 87 1008.9
20260506101505 11 346 6.4 8.0 0.00 0.00 0.00 87 1009.1
20260506101005 10 34 8.0 9.7 0.00 0.00 0.00 88 1008.7
20260506100505 10 324 12.9 16.1 0.00 0.00 0.00 88 1008.8
20260506100010 10 334 6.4 8.0 0.00 0.00 0.00 89 1008.8
20260506095505 10 353 6.4 8.0 0.00 0.00 0.00 89 1008.8
20260506095010 10 338 14.5 17.7 0.00 0.00 0.00 88 1008.9
20260506094506 10 337 12.9 16.1 0.00 0.00 0.00 87 1008.7
20260506094005 10 64 9.7 14.5 0.00 0.00 0.00 86 1008.8
20260506093506 10 357 11.3 12.9 0.00 0.00 0.00 86 1009.0
20260506093005 10 359 9.7 12.9 0.00 0.00 0.00 85 1008.8
20260506092505 10 20 9.7 14.5 0.00 0.00 0.00 85 1008.9
20260506092006 10 307 12.9 14.5 0.00 0.00 0.00 84 1008.7
20260506091505 10 348 6.4 8.0 0.00 0.00 0.00 85 1008.8
20260506091005 10 357 9.7 14.5 0.00 0.00 0.00 84 1008.6
20260506090506 10 335 11.3 16.1 0.00 0.00 0.00 85 1008.4
20260506090006 10 0 9.7 9.7 0.00 0.00 0.00 84 1008.6
20260506085510 10 13 11.3 16.1 0.00 0.00 0.00 85 1008.6
20260506085005 10 346 17.7 20.9 0.00 0.00 0.00 85 1008.7
20260506084505 10 18 12.9 16.1 0.00 0.00 0.00 86 1008.5
20260506084005 10 33 6.4 8.0 0.00 0.00 0.00 86 1008.6
20260506083511 10 40 8.0 9.7 0.00 0.00 0.00 86 1008.4
20260506083011 10 4 8.0 9.7 0.00 0.00 0.00 86 1008.4
20260506082510 10 358 6.4 6.4 0.00 0.00 0.00 86 1008.4
20260506082011 10 41 12.9 17.7 0.00 0.00 0.00 86 1008.4
20260506081505 10 11 12.9 14.5 0.00 0.00 0.00 86 1008.2
20260506081005 10 9 9.7 12.9 0.00 0.00 0.00 86 1008.3
20260506080510 10 7 6.4 8.0 0.00 0.00 0.00 85 1008.1
20260506073510 10 31 14.5 16.1 0.00 0.00 0.00 84 1008.2
20260506073006 10 340 17.7 19.3 0.00 0.00 0.00 84 1007.9
20260506072505 10 354 16.1 20.9 0.00 0.00 0.00 84 1008.0
20260506072005 10 326 16.1 17.7 0.00 0.00 0.00 84 1008.0
20260506071505 10 21 9.7 12.9 0.00 0.00 0.00 84 1007.9
20260506071005 10 314 19.3 22.5 0.00 0.00 0.00 85 1007.9
20260506070505 10 337 8.0 9.7 0.00 0.00 0.00 86 1008.0
20260506062505 9 342 6.4 9.7 0.00 0.00 0.00 87 1007.8
20260506062005 8 349 6.4 8.0 0.00 0.00 0.00 88 1007.9
20260506061506 8 340 6.4 6.4 0.00 0.00 0.00 88 1007.9
20260506061006 8 330 4.8 6.4 0.00 0.00 0.00 88 1007.6
20260506060506 8 356 6.4 6.4 0.00 0.00 0.00 88 1007.8
20260506051005 8 97 6.4 8.0 0.00 0.00 0.00 87 1007.8
20260506050505 8 344 8.0 9.7 0.00 0.00 0.00 86 1007.8
20260506045006 8 25 6.4 8.0 0.00 0.00 0.00 86 1007.6
20260506044506 8 342 3.2 4.8 0.00 0.00 0.00 86 1007.7
20260506044006 8 14 6.4 8.0 0.00 0.00 0.00 86 1007.7
20260506043505 8 339 9.7 12.9 0.00 0.00 0.00 86 1007.8
20260506043011 8 346 6.4 9.7 0.00 0.00 0.00 86 1007.7
20260506042505 8 351 4.8 6.4 0.00 0.00 0.00 86 1007.7
20260506042005 8 359 9.7 12.9 0.00 0.00 0.00 86 1007.7
20260506041505 8 357 8.0 9.7 0.00 0.00 0.00 86 1007.6
20260506041006 8 347 12.9 14.5 0.00 0.00 0.00 86 1007.6
20260506040505 8 351 4.8 4.8 0.00 0.00 0.00 86 1007.7
20260506040011 8 332 9.7 12.9 0.00 0.00 0.00 86 1007.7
20260506035506 8 26 4.8 6.4 0.00 0.00 0.00 86 1007.9
20260506035005 8 338 6.4 6.4 0.00 0.00 0.00 86 1007.8
20260506034506 8 353 4.8 6.4 0.00 0.00 0.00 86 1007.7
20260506034005 8 4 6.4 8.0 0.00 0.00 0.00 86 1007.9
20260506033510 8 307 9.7 16.1 0.00 0.00 0.00 86 1007.8
20260506033005 8 11 8.0 9.7 0.00 0.00 0.00 86 1008.2
20260506032505 8 353 8.0 9.7 0.00 0.00 0.00 86 1008.0
20260506032005 8 280 6.4 8.0 0.00 0.00 0.00 86 1007.8
20260506031505 8 16 6.4 9.7 0.00 0.00 0.00 86 1008.0
20260506031010 8 308 6.4 9.7 0.00 0.00 0.00 86 1008.1
20260506030505 8 17 8.0 9.7 0.00 0.00 0.00 86 1008.0
20260506030005 8 356 8.0 9.7 0.00 0.00 0.00 86 1008.0
20260506025505 8 346 9.7 12.9 0.00 0.00 0.00 86 1008.1
20260506025005 8 344 6.4 8.0 0.00 0.00 0.00 86 1008.1
20260506024505 8 350 4.8 6.4 0.00 0.00 0.00 86 1008.1
20260506024005 8 338 4.8 6.4 0.00 0.00 0.00 85 1008.1
20260506023505 8 329 8.0 9.7 0.00 0.00 0.00 85 1008.0
20260506023005 8 349 4.8 4.8 0.00 0.00 0.00 85 1008.0
20260506022505 8 353 6.4 6.4 0.00 0.00 0.00 85 1008.1
20260506022005 8 341 8.0 9.7 0.00 0.00 0.00 85 1007.9
20260506021505 8 351 8.0 9.7 0.00 0.00 0.00 85 1008.2
20260506021005 8 344 6.4 8.0 0.00 0.00 0.00 85 1008.2
20260506020505 8 356 6.4 6.4 0.00 0.00 0.00 85 1008.2
20260506020005 8 339 6.4 8.0 0.00 0.00 0.00 85 1008.3
20260506015505 8 41 6.4 8.0 0.00 0.00 0.00 85 1008.1
20260506015005 8 325 4.8 4.8 0.00 0.00 0.00 85 1008.2
20260506014510 8 344 6.4 6.4 0.00 0.00 0.00 86 1008.0
20260506014010 8 5 3.2 4.8 0.00 0.00 0.00 85 1008.1
20260506013505 8 2 6.4 8.0 0.00 0.00 0.00 85 1008.0
20260506013005 8 340 6.4 9.7 0.00 0.00 0.00 85 1008.0
20260506012506 8 342 6.4 8.0 0.00 0.00 0.00 85 1008.2
20260506012005 8 346 9.7 12.9 0.00 0.00 0.00 86 1008.2
20260506011505 8 5 9.7 12.9 0.00 0.00 0.00 86 1008.0
20260506011005 8 336 6.4 8.0 0.00 0.00 0.00 86 1008.2
20260506010505 8 10 9.7 12.9 0.00 0.00 0.00 87 1008.1
20260506010005 8 348 8.0 9.7 0.00 0.00 0.00 88 1008.3
20260506005505 8 354 4.8 6.4 0.00 0.00 0.00 88 1008.1
20260506005006 8 27 8.0 8.0 0.00 0.00 0.00 87 1008.1
20260506004505 8 2 8.0 9.7 0.00 0.00 0.00 87 1008.2
20260506004005 8 353 6.4 8.0 0.00 0.00 0.00 87 1008.3
20260506003511 8 58 6.4 8.0 0.00 0.00 0.00 87 1008.4
20260506003006 9 333 8.0 8.0 0.00 0.00 0.00 87 1008.7
20260506002505 9 306 8.0 9.7 0.00 0.00 0.00 87 1008.7
20260506002006 9 332 8.0 9.7 0.00 0.00 0.00 87 1008.4
20260506001511 9 41 8.0 12.9 0.00 0.00 0.00 87 1008.4
20260506001005 9 14 6.4 8.0 0.00 0.00 0.00 87 1008.4
20260506000510 9 334 11.3 14.5 0.00 0.00 0.00 87 1008.3
20260506000005 9 353 9.7 9.7 0.00 0.00 0.00 87 1008.6
20260505235506 9 353 9.7 12.9 0.00 0.00 0.00 88 1008.5
20260505235005 9 14 8.0 8.0 0.00 0.00 0.00 88 1008.6
20260505234505 9 346 9.7 12.9 0.00 0.00 0.00 87 1008.4
20260505234005 9 354 8.0 9.7 0.00 0.00 0.00 87 1008.5
20260505233505 9 349 11.3 14.5 0.00 0.00 0.00 87 1008.6
20260505233010 9 342 9.7 14.5 0.00 0.00 0.00 87 1008.7
20260505232510 9 345 8.0 9.7 0.00 0.00 0.00 87 1008.4
20260505232005 9 354 6.4 8.0 0.00 0.00 0.00 87 1008.3
20260505231505 10 352 6.4 8.0 0.00 0.00 0.00 87 1008.5
20260505231005 10 339 6.4 8.0 0.00 0.00 0.00 87 1008.7
20260505230505 10 344 11.3 12.9 0.00 0.00 0.00 87 1008.4
20260505230005 10 13 8.0 12.9 0.00 0.00 0.00 87 1008.6
20260505225510 10 343 4.8 6.4 0.00 0.00 0.00 87 1008.7
20260505225005 10 351 6.4 8.0 0.00 0.00 0.00 87 1008.6
20260505224505 10 346 8.0 8.0 0.00 0.00 0.00 86 1008.8
20260505224010 10 1 6.4 6.4 0.00 0.00 0.00 86 1008.7
20260505223505 10 301 6.4 8.0 0.00 0.00 0.00 86 1008.7
20260505223005 10 345 9.7 12.9 0.00 0.00 0.00 86 1008.8
20260505222506 10 4 6.4 9.7 0.00 0.00 0.00 86 1008.7
20260505222005 10 27 4.8 6.4 0.00 0.00 0.00 86 1008.6
20260505221505 10 18 6.4 8.0 0.00 0.00 0.00 85 1008.7
20260505221005 10 1 6.4 8.0 0.00 0.00 0.00 85 1008.7
20260505220505 10 353 4.8 4.8 0.00 0.00 0.00 85 1008.9
20260505220005 10 341 4.8 4.8 0.00 0.00 0.00 85 1008.7
20260505215505 10 15 4.8 6.4 0.00 0.00 0.00 84 1008.9
20260505215010 10 12 4.8 6.4 0.00 0.00 0.00 84 1008.8
20260505214505 10 349 6.4 9.7 0.00 0.00 0.00 84 1008.7
20260505214005 10 18 6.4 6.4 0.00 0.00 0.00 84 1008.7
20260505213506 10 338 9.7 9.7 0.00 0.00 0.00 84 1008.7
20260505213006 10 11 4.8 4.8 0.00 0.00 0.00 84 1008.8
20260505212505 10 357 8.0 9.7 0.00 0.00 0.00 84 1008.7
20260505212005 10 14 6.4 6.4 0.00 0.00 0.00 84 1008.8
20260505211510 10 9 8.0 12.9 0.00 0.00 0.00 84 1008.6
20260505211005 10 353 4.8 6.4 0.00 0.00 0.00 84 1008.6
20260505210505 10 13 11.3 12.9 0.00 0.00 0.00 83 1008.8
20260505210006 10 25 8.0 9.7 0.00 0.00 0.00 84 1008.7
20260505205506 10 11 14.5 19.3 0.00 0.00 0.00 83 1008.6
20260505205005 10 338 11.3 14.5 0.00 0.00 0.00 83 1008.8
20260505204511 10 1 12.9 14.5 0.00 0.00 0.00 83 1008.6
20260505204006 11 47 6.4 9.7 0.00 0.00 0.00 82 1008.8
20260505203505 11 19 4.8 4.8 0.00 0.00 0.00 83 1008.6
20260505203005 11 359 8.0 8.0 0.00 0.00 0.00 83 1008.6
20260505202505 11 68 6.4 8.0 0.00 0.00 0.00 82 1008.7
20260505202006 11 18 12.9 14.5 0.00 0.00 0.00 81 1008.5
20260505201505 11 349 9.7 9.7 0.00 0.00 0.00 81 1008.7
20260505201005 11 354 12.9 17.7 0.00 0.00 0.00 81 1008.6
20260505200506 11 9 4.8 6.4 0.00 0.00 0.00 81 1008.8
20260505200005 11 355 12.9 14.5 0.00 0.00 0.00 80 1008.3